Location: Waco, TX
(31.5480°N, 97.1670°W)
Time: 19:48:58
(UTC-05:00)

ISS - Pass Details

Date: 10 August 2018
Orbit: 402 x 409 km, 51.6° (Epoch: 21 August)

Event Time Altitude Azimuth Distance (km) Brightness Sun altitude
Rises 20:49:05 0° 320° (NW) 2,320 1.3 -7.3°
Reaches altitude 10° 20:51:13 10° 326° (NNW) 1,460 0.0 -7.7°
Maximum altitude 20:54:24 48° 43° (NE) 538 -3.4 -8.3°
Enters shadow 20:57:14 12° 117° (ESE) 1,321 -1.9 -8.8°
Drops below altitude 10° 20:57:34 10° 119° (ESE) 1,457 - -8.9°
Sets 20:59:42 0° 125° (SE) 2,316 - -9.3°
